Location: ?
(35.4064°N, 139.3593°E)
Time: 12:32:28
(UTC+00:00)

ARIANE 6 FM1 Upper Stage - Pass Details

Date: 12 December 2025
Orbit: 522 x 610 km, 62.0° (Epoch: 13 January)

Event Time Altitude Azimuth Distance (km) Brightness Sun altitude
Rises 20:52:29 0° 201° (SSW) 2,711 6.2 -10.1°
Reaches altitude 10° 20:54:44 10° 196° (SSW) 1,807 5.3 -9.7°
Maximum altitude 20:58:41 52° 120° (ESE) 670 3.5 -8.9°
Drops below altitude 10° 21:02:34 10° 43° (NE) 1,778 5.5 -8.2°
Sets 21:04:47 0° 39° (NE) 2,662 6.3 -7.8°
